ETD72E OMAA-EIDW

Flight info

Callsign ETD72E
Flight time N/A
Altitude 34000
Route ATUDO DCT DANOK DCT SOMAL DCT DEBUD DCT KSA T503 OVANO L768 FIRAS/N0481F360 R655 KTN/N0467F260 R655 LEBOR UR655 BALMA DCT VESAR UB545 MUT UL619 OSVEL UQ23 OSDAN UQ26 TUDBU DCT GRN T226 NAVOD DCT INVED DCT DITIS DCT LOMKI/N0484F380 DCT VARIK DCT KATCE DCT PREXA DCT RAVLO Y70 OTBED L60 PENIL UL28 LELDO M145 BAGSO BAGSO4L
Aircraft B77W/H-SDE1E2E3FGHIJ2J3J4J5M1RWXY/LB1D1

Departure

Time 2026-05-08 00:26
Airport Zayed International Airport (OMAA)

Arrival

Time N/A
Airport Dublin Airport (EIDW)
Time Latitude Longitude Altitude Speed Heading
2026-05-08 00:08 24.44601 54.64551 86 ft 0 kts 232°
2026-05-08 00:11 24.44605 54.64557 86 ft 2 kts 226°
2026-05-08 00:11 24.44617 54.64570 86 ft 2 kts 220°
2026-05-08 00:12 24.44630 54.64580 86 ft 2 kts 208°
2026-05-08 00:12 24.44645 54.64588 86 ft 2 kts 193°
2026-05-08 00:12 24.44662 54.64590 86 ft 2 kts 176°
2026-05-08 00:12 24.44678 54.64587 86 ft 2 kts 161°
2026-05-08 00:13 24.44693 54.64580 86 ft 2 kts 149°
2026-05-08 00:13 24.44703 54.64572 84 ft 1 kts 143°
2026-05-08 00:13 24.44706 54.64570 85 ft 0 kts 143°
2026-05-08 00:16 24.44675 54.64601 84 ft 9 kts 136°
2026-05-08 00:17 24.44632 54.64654 85 ft 9 kts 129°
2026-05-08 00:17 24.44594 54.64711 85 ft 9 kts 114°
2026-05-08 00:17 24.44602 54.64789 85 ft 11 kts 86°
2026-05-08 00:17 24.44564 54.64877 84 ft 16 kts 127°
2026-05-08 00:18 24.44497 54.64971 85 ft 16 kts 128°
2026-05-08 00:18 24.44431 54.65065 87 ft 16 kts 128°
2026-05-08 00:18 24.44370 54.65152 84 ft 9 kts 128°
2026-05-08 00:18 24.44313 54.65165 87 ft 10 kts 205°
2026-05-08 00:19 24.44236 54.65105 85 ft 15 kts 217°
2026-05-08 00:19 24.44151 54.65033 85 ft 15 kts 218°
2026-05-08 00:19 24.44066 54.64960 84 ft 15 kts 218°
2026-05-08 00:19 24.43981 54.64888 85 ft 15 kts 217°
2026-05-08 00:20 24.43908 54.64827 84 ft 11 kts 214°
2026-05-08 00:20 24.43839 54.64836 84 ft 11 kts 135°
2026-05-08 00:20 24.43792 54.64900 85 ft 11 kts 128°
2026-05-08 00:20 24.43743 54.64969 84 ft 13 kts 127°
2026-05-08 00:21 24.43661 54.65085 84 ft 26 kts 128°
2026-05-08 00:21 24.43541 54.65253 84 ft 28 kts 128°
2026-05-08 00:21 24.43421 54.65422 87 ft 28 kts 128°
2026-05-08 00:21 24.43300 54.65591 85 ft 28 kts 128°
2026-05-08 00:22 24.43180 54.65760 84 ft 28 kts 128°
2026-05-08 00:22 24.43060 54.65930 85 ft 28 kts 128°
2026-05-08 00:22 24.42940 54.66099 82 ft 28 kts 128°
2026-05-08 00:22 24.42819 54.66268 84 ft 28 kts 128°
2026-05-08 00:23 24.42700 54.66437 86 ft 28 kts 128°
2026-05-08 00:23 24.42582 54.66604 86 ft 23 kts 128°
2026-05-08 00:23 24.42496 54.66724 86 ft 20 kts 127°
2026-05-08 00:23 24.42427 54.66821 85 ft 13 kts 128°
2026-05-08 00:24 24.42378 54.66864 85 ft 9 kts 178°
2026-05-08 00:24 24.42324 54.66833 84 ft 9 kts 217°
2026-05-08 00:24 24.42265 54.66783 85 ft 12 kts 218°
2026-05-08 00:24 24.42214 54.66738 69 ft 6 kts 218°
2026-05-08 00:25 24.42192 54.66700 84 ft 6 kts 269°
2026-05-08 00:25 24.42210 54.66663 85 ft 3 kts 306°
2026-05-08 00:25 24.42274 54.66572 85 ft 32 kts 308°
2026-05-08 00:25 24.42558 54.66171 85 ft 103 kts 308°
2026-05-08 00:26 24.43147 54.65343 88 ft 166 kts 307°
2026-05-08 00:26 24.43790 54.64418 121 ft 200 kts 308°
2026-05-08 00:26 24.44605 54.63256 716 ft 197 kts 309°
2026-05-08 00:26 24.45465 54.62060 1269 ft 202 kts 308°
2026-05-08 00:27 24.46338 54.60844 1855 ft 204 kts 308°
2026-05-08 00:27 24.47204 54.59629 2247 ft 208 kts 307°
2026-05-08 00:27 24.48112 54.58352 2676 ft 209 kts 307°
2026-05-08 00:27 24.49010 54.57086 3086 ft 211 kts 306°
2026-05-08 00:28 24.49926 54.55791 3347 ft 223 kts 306°
2026-05-08 00:28 24.50920 54.54384 3484 ft 242 kts 306°
2026-05-08 00:28 24.51955 54.52919 3857 ft 249 kts 306°
2026-05-08 00:28 24.53033 54.51396 4402 ft 250 kts 306°
2026-05-08 00:29 24.54090 54.49903 4906 ft 253 kts 306°
2026-05-08 00:29 24.55370 54.48542 5075 ft 268 kts 333°
2026-05-08 00:29 24.57208 54.48137 5357 ft 280 kts
2026-05-08 00:29 24.59110 54.48696 5845 ft 286 kts 25°
2026-05-08 00:30 24.60697 54.49997 6378 ft 289 kts 52°
2026-05-08 00:30 24.61560 54.51974 6913 ft 290 kts 79°
2026-05-08 00:30 24.61621 54.54175 7422 ft 290 kts 94°
2026-05-08 00:30 24.61480 54.56404 7929 ft 294 kts 95°
2026-05-08 00:31 24.61331 54.58668 8565 ft 293 kts 95°
2026-05-08 00:31 24.61188 54.60879 9173 ft 294 kts 94°
2026-05-08 00:31 24.61047 54.63157 9787 ft 295 kts 94°
2026-05-08 00:31 24.60913 54.65407 10341 ft 297 kts 94°
2026-05-08 00:32 24.60775 54.67734 10557 ft 314 kts 95°
2026-05-08 00:32 24.60275 54.70079 10649 ft 331 kts 117°
2026-05-08 00:32 24.58797 54.72087 10806 ft 350 kts 143°
2026-05-08 00:32 24.56544 54.73246 10949 ft 371 kts 168°
2026-05-08 00:33 24.53938 54.73211 11277 ft 385 kts 193°
2026-05-08 00:33 24.51459 54.72024 11739 ft 395 kts 210°
2026-05-08 00:33 24.49115 54.70420 12332 ft 400 kts 211°
2026-05-08 00:33 24.46741 54.68786 12993 ft 405 kts 210°
2026-05-08 00:34 24.44316 54.67188 13647 ft 409 kts 209°
2026-05-08 00:34 24.41835 54.65623 14269 ft 412 kts 208°
2026-05-08 00:34 24.39331 54.64088 14933 ft 413 kts 207°
2026-05-08 00:34 24.36808 54.62561 15607 ft 415 kts 207°
2026-05-08 00:35 24.34278 54.61034 16268 ft 417 kts 207°
2026-05-08 00:35 24.31738 54.59486 16910 ft 418 kts 210°
2026-05-08 00:35 24.29369 54.57598 17428 ft 425 kts 221°
2026-05-08 00:35 24.27337 54.55223 18050 ft 429 kts 231°
2026-05-08 00:36 24.25681 54.52502 18617 ft 430 kts 238°
2026-05-08 00:36 24.24165 54.49665 19092 ft 434 kts 239°
2026-05-08 00:36 24.22639 54.46795 19603 ft 437 kts 239°
2026-05-08 00:36 24.21101 54.43912 20161 ft 439 kts 239°
2026-05-08 00:37 24.19549 54.41024 20726 ft 440 kts 239°
2026-05-08 00:37 24.17986 54.38132 21264 ft 442 kts 239°
2026-05-08 00:37 24.16408 54.35228 21772 ft 445 kts 239°
2026-05-08 00:38 24.13216 54.29378 22767 ft 450 kts 239°
2026-05-08 00:38 24.11631 54.26479 23231 ft 452 kts 239°
2026-05-08 00:38 24.09986 54.23473 23683 ft 454 kts 239°
2026-05-08 00:38 24.08360 54.20502 24094 ft 455 kts 239°
2026-05-08 00:39 24.06733 54.17533 24525 ft 456 kts 239°
2026-05-08 00:39 24.05121 54.14592 24940 ft 457 kts 239°
2026-05-08 00:39 24.03484 54.11606 25328 ft 459 kts 239°
2026-05-08 00:39 24.01820 54.08572 25707 ft 460 kts 239°
2026-05-08 00:40 24.00169 54.05565 26081 ft 462 kts 239°
2026-05-08 00:40 23.98514 54.02552 26469 ft 463 kts 239°
2026-05-08 00:40 23.96860 53.99542 26845 ft 464 kts 239°
2026-05-08 00:40 23.95194 53.96513 27224 ft 465 kts 239°
2026-05-08 00:41 23.93545 53.93516 27598 ft 467 kts 239°
2026-05-08 00:41 23.91847 53.90433 27944 ft 468 kts 239°
2026-05-08 00:41 23.90165 53.87378 28267 ft 470 kts 239°
2026-05-08 00:41 23.88477 53.84318 28583 ft 471 kts 239°
2026-05-08 00:42 23.86785 53.81251 28875 ft 472 kts 239°
2026-05-08 00:42 23.85108 53.78211 29163 ft 474 kts 239°
2026-05-08 00:42 23.83405 53.75128 29448 ft 475 kts 239°
2026-05-08 00:42 23.81696 53.72036 29763 ft 475 kts 239°
2026-05-08 00:43 23.79994 53.68957 30120 ft 473 kts 239°
2026-05-08 00:43 23.78292 53.65881 30456 ft 472 kts 239°
2026-05-08 00:43 23.76601 53.62827 30787 ft 470 kts 239°
2026-05-08 00:43 23.74908 53.59769 31092 ft 470 kts 239°
2026-05-08 00:44 23.73230 53.56710 31307 ft 471 kts 241°
2026-05-08 00:44 23.71832 53.53474 31556 ft 471 kts 249°
2026-05-08 00:44 23.70787 53.50095 31876 ft 470 kts 253°
2026-05-08 00:44 23.70008 53.46644 32203 ft 468 kts 259°
2026-05-08 00:45 23.69572 53.43121 32509 ft 468 kts 262°
2026-05-08 00:45 23.69223 53.39594 32778 ft 468 kts 263°
2026-05-08 00:45 23.68885 53.36071 33121 ft 466 kts 263°
2026-05-08 00:45 23.68546 53.32569 33490 ft 463 kts 263°
2026-05-08 00:46 23.68200 53.29082 33735 ft 463 kts 262°
2026-05-08 00:46 23.67503 53.22280 33825 ft 466 kts 262°
2026-05-08 00:47 23.66769 53.15288 33815 ft 462 kts 262°
2026-05-08 00:47 23.66033 53.08341 33829 ft 460 kts 262°
2026-05-08 00:48 23.65332 53.01752 33827 ft 460 kts 262°
2026-05-08 00:48 23.64593 52.94821 33826 ft 460 kts 262°
2026-05-08 00:49 23.63980 52.89089 33815 ft 461 kts 262°
2026-05-08 00:49 23.63231 52.82118 33817 ft 462 kts 262°
2026-05-08 00:50 23.62480 52.75155 33810 ft 463 kts 262°
2026-05-08 00:50 23.61724 52.68182 33824 ft 463 kts 262°
2026-05-08 00:51 23.60965 52.61206 33818 ft 464 kts 262°
2026-05-08 00:51 23.60203 52.54222 33824 ft 464 kts 262°
2026-05-08 00:52 23.59439 52.47258 33816 ft 463 kts 262°
2026-05-08 00:52 23.58671 52.40291 33824 ft 463 kts 262°
2026-05-08 00:53 23.57900 52.33325 33825 ft 463 kts 262°
2026-05-08 00:53 23.57134 52.26428 33810 ft 462 kts 262°
2026-05-08 00:54 23.56358 52.19470 33817 ft 462 kts 262°
2026-05-08 00:54 23.55580 52.12526 33833 ft 462 kts 262°
2026-05-08 00:55 23.54799 52.05574 33823 ft 462 kts 262°
2026-05-08 00:55 23.54015 51.98630 33821 ft 462 kts 261°
2026-05-08 00:56 23.53227 51.91683 33819 ft 462 kts 261°
2026-05-08 00:56 23.52441 51.84779 33817 ft 462 kts 262°
2026-05-08 00:57 23.51648 51.77839 33821 ft 462 kts 261°
2026-05-08 00:57 23.50852 51.70902 33824 ft 461 kts 261°
2026-05-08 00:58 23.50053 51.63967 33823 ft 461 kts 261°
2026-05-08 00:58 23.49253 51.57035 33825 ft 461 kts 262°
2026-05-08 00:59 23.48494 51.50098 33823 ft 462 kts 265°
2026-05-08 00:59 23.48926 51.43108 33842 ft 465 kts 277°
2026-05-08 01:00 23.50651 51.36296 33842 ft 468 kts 286°
2026-05-08 01:00 23.52818 51.29594 33830 ft 469 kts 287°
2026-05-08 01:01 23.54978 51.22886 33825 ft 469 kts 286°
2026-05-08 01:01 23.57105 51.16164 33859 ft 469 kts 286°
2026-05-08 01:02 23.59216 51.09435 33831 ft 468 kts 286°
2026-05-08 01:02 23.61312 51.02731 33837 ft 467 kts 286°
2026-05-08 01:03 23.63403 50.96032 33839 ft 466 kts 286°
2026-05-08 01:03 23.65485 50.89355 33842 ft 465 kts 286°
2026-05-08 01:04 23.67564 50.82675 33839 ft 465 kts 286°
2026-05-08 01:04 23.69638 50.76004 33848 ft 465 kts 286°
2026-05-08 01:05 23.71711 50.69321 33848 ft 465 kts 285°
2026-05-08 01:05 23.73781 50.62639 33848 ft 465 kts 285°
2026-05-08 01:06 23.75850 50.55948 33844 ft 465 kts 285°
2026-05-08 01:06 23.77916 50.49254 33843 ft 465 kts 285°
2026-05-08 01:07 23.79979 50.42559 33844 ft 465 kts 285°
2026-05-08 01:07 23.82026 50.35906 33843 ft 465 kts 285°
2026-05-08 01:08 23.84082 50.29213 33847 ft 464 kts 285°
2026-05-08 01:08 23.86129 50.22536 33845 ft 463 kts 285°
2026-05-08 01:09 23.88168 50.15875 33848 ft 462 kts 285°
2026-05-08 01:09 23.90200 50.09223 33845 ft 461 kts 285°
2026-05-08 01:10 23.92223 50.02591 33846 ft 460 kts 285°
2026-05-08 01:10 23.94236 49.95979 33852 ft 460 kts 285°
2026-05-08 01:11 23.96250 49.89350 33850 ft 459 kts 285°
2026-05-08 01:11 23.98260 49.82726 33853 ft 459 kts 285°
2026-05-08 01:12 24.00254 49.76144 33853 ft 458 kts 285°
2026-05-08 01:12 24.02254 49.69530 33851 ft 458 kts 285°
2026-05-08 01:13 24.04255 49.62901 33856 ft 459 kts 285°
2026-05-08 01:13 24.06251 49.56274 33870 ft 459 kts 285°
2026-05-08 01:14 24.08249 49.49632 33852 ft 460 kts 284°
2026-05-08 01:14 24.10245 49.42986 33860 ft 460 kts 284°
2026-05-08 01:15 24.12240 49.36329 33857 ft 460 kts 284°
2026-05-08 01:15 24.14232 49.29675 33862 ft 460 kts 284°
2026-05-08 01:16 24.16220 49.23019 33863 ft 460 kts 284°
2026-05-08 01:16 24.18198 49.16386 33869 ft 460 kts 284°
2026-05-08 01:17 24.20173 49.09753 33852 ft 453 kts 284°
2026-05-08 01:17 24.21139 49.06512 33855 ft 442 kts 284°
2026-05-08 01:17 24.22089 49.03317 33865 ft 443 kts 284°
2026-05-08 01:18 24.24008 48.96827 33881 ft 452 kts 284°
2026-05-08 01:18 24.25959 48.90230 33872 ft 458 kts 284°
2026-05-08 01:19 24.27930 48.83565 33870 ft 461 kts 284°
2026-05-08 01:19 24.29909 48.76862 33878 ft 461 kts 284°
2026-05-08 01:20 24.31863 48.70234 33861 ft 453 kts 284°
2026-05-08 01:20 24.33791 48.63959 33883 ft 454 kts 285°
2026-05-08 01:21 24.35991 48.57454 33871 ft 454 kts 286°
2026-05-08 01:21 24.38196 48.50964 33875 ft 453 kts 286°
2026-05-08 01:22 24.40359 48.44505 33878 ft 453 kts 285°
2026-05-08 01:22 24.42521 48.37993 33881 ft 453 kts 285°
2026-05-08 01:23 24.44678 48.31475 33885 ft 453 kts 285°
2026-05-08 01:23 24.46831 48.24958 33889 ft 454 kts 285°
2026-05-08 01:24 24.48971 48.18476 33894 ft 454 kts 285°
2026-05-08 01:24 24.51122 48.11947 33892 ft 453 kts 285°
2026-05-08 01:25 24.53270 48.05417 33913 ft 453 kts 285°
2026-05-08 01:25 24.55411 47.98899 33901 ft 453 kts 285°
2026-05-08 01:26 24.57535 47.92423 33906 ft 452 kts 285°
2026-05-08 01:26 24.59670 47.85899 33911 ft 452 kts 285°
2026-05-08 01:27 24.61798 47.79389 33911 ft 452 kts 285°
2026-05-08 01:27 24.63909 47.72918 33925 ft 452 kts 285°
2026-05-08 01:28 24.66031 47.66401 33919 ft 453 kts 284°
2026-05-08 01:28 24.68154 47.59872 33928 ft 453 kts 284°
2026-05-08 01:29 24.70282 47.53317 33933 ft 454 kts 284°
2026-05-08 01:29 24.72397 47.46790 33954 ft 455 kts 284°
2026-05-08 01:30 24.74529 47.40199 33941 ft 456 kts 284°
2026-05-08 01:30 24.76301 47.34716 33964 ft 456 kts 284°
2026-05-08 01:31 24.78426 47.28131 33948 ft 456 kts 284°
2026-05-08 01:31 24.80532 47.21588 33960 ft 455 kts 283°
2026-05-08 01:32 24.82642 47.15026 33968 ft 454 kts 283°
2026-05-08 01:32 24.84750 47.08458 33963 ft 453 kts 283°
2026-05-08 01:33 24.86846 47.01915 33986 ft 452 kts 283°
2026-05-08 01:33 24.88920 46.95429 33989 ft 451 kts 283°
2026-05-08 01:34 24.91001 46.88910 33966 ft 449 kts 283°
2026-05-08 01:34 24.93073 46.82410 33971 ft 448 kts 283°
2026-05-08 01:35 24.95135 46.75927 33962 ft 447 kts 283°
2026-05-08 01:35 24.97445 46.69577 33980 ft 455 kts 292°
2026-05-08 01:36 25.01093 46.63793 33976 ft 466 kts 303°
2026-05-08 01:36 25.05815 46.58749 33977 ft 473 kts 309°
2026-05-08 01:37 25.10704 46.53872 33979 ft 473 kts 309°
2026-05-08 01:37 25.15561 46.48972 33987 ft 471 kts 309°
2026-05-08 01:38 25.20343 46.44090 33981 ft 469 kts 308°
2026-05-08 01:38 25.25137 46.39173 33980 ft 468 kts 308°
2026-05-08 01:39 25.29907 46.34277 33995 ft 467 kts 308°
2026-05-08 01:39 25.34682 46.29373 33987 ft 467 kts 308°
2026-05-08 01:40 25.39418 46.24504 33976 ft 466 kts 308°
2026-05-08 01:40 25.44167 46.19616 33968 ft 466 kts 308°
2026-05-08 01:41 25.48923 46.14714 33986 ft 466 kts 308°
2026-05-08 01:41 25.53674 46.09812 33971 ft 467 kts 308°
2026-05-08 01:42 25.58397 46.04933 33969 ft 467 kts 308°
2026-05-08 01:42 25.63159 46.00011 33983 ft 468 kts 308°
2026-05-08 01:43 25.67931 45.95076 33966 ft 469 kts 308°
2026-05-08 01:43 25.72704 45.90133 33974 ft 469 kts 308°
2026-05-08 01:44 25.77476 45.85184 33972 ft 469 kts 308°
2026-05-08 01:44 25.82254 45.80224 33969 ft 469 kts 308°
2026-05-08 01:45 25.87000 45.75291 33971 ft 469 kts 308°
2026-05-08 01:45 25.91766 45.70337 33967 ft 469 kts 308°
2026-05-08 01:46 25.96549 45.65361 33982 ft 469 kts 308°
2026-05-08 01:46 26.01269 45.60443 33970 ft 469 kts 308°
2026-05-08 01:47 26.06031 45.55474 33968 ft 469 kts 308°
2026-05-08 01:47 26.10792 45.50501 33989 ft 468 kts 308°
2026-05-08 01:48 26.17929 45.43035 33966 ft 469 kts 308°
2026-05-08 01:48 26.22681 45.38037 33967 ft 469 kts 308°
2026-05-08 01:49 26.27405 45.33059 33970 ft 469 kts 308°
2026-05-08 01:49 26.32166 45.28043 33962 ft 470 kts 308°
2026-05-08 01:50 26.36915 45.23062 33960 ft 471 kts 308°
2026-05-08 01:50 26.41698 45.18043 33964 ft 471 kts 308°
2026-05-08 01:51 26.46469 45.13026 33957 ft 471 kts 308°
2026-05-08 01:51 26.51243 45.07997 33951 ft 471 kts 308°
2026-05-08 01:52 26.56018 45.02962 33959 ft 470 kts 308°
2026-05-08 01:52 26.60742 44.97975 33964 ft 470 kts 308°
2026-05-08 01:53 26.65509 44.92947 33954 ft 470 kts 308°
2026-05-08 01:53 26.70273 44.87915 33954 ft 470 kts 308°
2026-05-08 01:54 26.75033 44.82880 33951 ft 470 kts 308°
2026-05-08 01:54 26.79761 44.77865 33950 ft 470 kts 308°
2026-05-08 01:55 26.84508 44.72809 33952 ft 470 kts 308°
2026-05-08 01:55 26.89260 44.67737 33951 ft 471 kts 308°
2026-05-08 01:56 26.94010 44.62665 33952 ft 471 kts 308°
2026-05-08 01:56 26.98733 44.57616 33952 ft 472 kts 309°
2026-05-08 01:57 27.03515 44.52511 33958 ft 473 kts 309°
2026-05-08 01:57 27.08268 44.47441 33955 ft 473 kts 309°
2026-05-08 01:58 27.13045 44.42336 33957 ft 474 kts 309°
2026-05-08 01:58 27.17822 44.37222 33958 ft 475 kts 309°
2026-05-08 01:59 27.22606 44.32092 33954 ft 475 kts 309°
2026-05-08 01:59 27.27399 44.26945 33969 ft 475 kts 309°
2026-05-08 02:00 27.32157 44.21828 33962 ft 476 kts 309°
2026-05-08 02:00 27.36944 44.16672 33959 ft 476 kts 309°
2026-05-08 02:01 27.41734 44.11508 33966 ft 476 kts 309°
2026-05-08 02:01 27.46528 44.06333 33962 ft 476 kts 309°
2026-05-08 02:02 27.51316 44.01158 33977 ft 476 kts 308°
2026-05-08 02:02 27.56074 43.96007 33970 ft 477 kts 308°
2026-05-08 02:03 27.60062 43.91686 33961 ft 477 kts 308°
2026-05-08 02:03 27.64849 43.86493 33973 ft 477 kts 308°
2026-05-08 02:04 27.69635 43.81294 33983 ft 477 kts 308°
2026-05-08 02:04 27.74414 43.76095 33975 ft 477 kts 308°
2026-05-08 02:05 27.79196 43.70887 33972 ft 477 kts 308°
2026-05-08 02:05 27.83976 43.65675 33976 ft 477 kts 308°
2026-05-08 02:06 27.88587 43.60386 33984 ft 473 kts 305°
2026-05-08 02:06 27.93065 43.54905 33974 ft 473 kts 304°
2026-05-08 02:07 27.97542 43.49429 33982 ft 473 kts 305°
2026-05-08 02:07 28.02042 43.43977 33987 ft 474 kts 305°
2026-05-08 02:08 28.06531 43.38555 33982 ft 474 kts 304°
2026-05-08 02:08 28.11042 43.33105 33994 ft 472 kts 304°
2026-05-08 02:09 28.15532 43.27669 33990 ft 471 kts 304°
2026-05-08 02:09 28.20002 43.22248 34022 ft 469 kts 304°
2026-05-08 02:10 28.24464 43.16828 34005 ft 469 kts 304°
2026-05-08 02:10 28.28897 43.11437 33998 ft 468 kts 304°
2026-05-08 02:11 28.33346 43.06019 34000 ft 468 kts 304°
2026-05-08 02:11 28.37795 43.00595 34023 ft 468 kts 304°
2026-05-08 02:12 28.42208 42.95207 34007 ft 468 kts 304°
2026-05-08 02:12 28.46642 42.89785 34019 ft 467 kts 304°
2026-05-08 02:13 28.51073 42.84361 34006 ft 467 kts 304°
2026-05-08 02:13 28.55479 42.78961 34010 ft 467 kts 304°
2026-05-08 02:14 28.59900 42.73533 34010 ft 466 kts 304°
2026-05-08 02:14 28.64312 42.68113 34013 ft 466 kts 304°
2026-05-08 02:15 28.68722 42.62677 34015 ft 466 kts 304°
2026-05-08 02:15 28.73099 42.57267 34023 ft 467 kts 304°
2026-05-08 02:16 28.77504 42.51815 34014 ft 467 kts 304°
2026-05-08 02:16 28.81911 42.46356 34013 ft 467 kts 304°
2026-05-08 02:17 28.86309 42.40900 34021 ft 467 kts 304°
2026-05-08 02:17 28.90711 42.35431 34027 ft 467 kts 304°
2026-05-08 02:18 28.95090 42.29984 34023 ft 467 kts 304°
2026-05-08 02:18 28.99482 42.24512 34030 ft 467 kts 304°
2026-05-08 02:19 29.03875 42.19034 34044 ft 467 kts 304°
2026-05-08 02:19 29.08267 42.13553 34029 ft 467 kts 304°
2026-05-08 02:20 29.12659 42.08070 34028 ft 467 kts 304°
2026-05-08 02:20 29.17044 42.02587 34036 ft 467 kts 304°
2026-05-08 02:21 29.21437 41.97085 34039 ft 467 kts 304°
2026-05-08 02:21 29.25798 41.91613 34037 ft 468 kts 304°
2026-05-08 02:22 29.30169 41.86123 34048 ft 469 kts 304°
2026-05-08 02:22 29.34576 41.80580 34042 ft 469 kts 304°
2026-05-08 02:23 29.38974 41.75041 34053 ft 470 kts 304°
2026-05-08 02:23 29.43383 41.69482 34043 ft 469 kts 304°
2026-05-08 02:24 29.47746 41.63972 34038 ft 468 kts 304°
2026-05-08 02:24 29.52129 41.58429 34047 ft 467 kts 304°
2026-05-08 02:25 29.56502 41.52891 34050 ft 466 kts 304°
2026-05-08 02:25 29.60829 41.47403 34048 ft 465 kts 304°
2026-05-08 02:26 29.65162 41.41898 34051 ft 463 kts 303°
2026-05-08 02:26 29.69493 41.36389 34053 ft 462 kts 303°
2026-05-08 02:27 29.73829 41.30911 34041 ft 464 kts 306°
2026-05-08 02:27 29.78635 41.25865 34063 ft 468 kts 310°
2026-05-08 02:28 29.83462 41.20978 34065 ft 467 kts 310°
2026-05-08 02:28 29.88341 41.16001 34053 ft 467 kts 310°
2026-05-08 02:29 29.93199 41.11012 34063 ft 467 kts 310°
2026-05-08 02:29 29.98023 41.06044 34056 ft 467 kts 310°
2026-05-08 02:30 30.02882 41.01034 34057 ft 468 kts 309°
2026-05-08 02:30 30.07737 40.96023 34067 ft 468 kts 310°
2026-05-08 02:31 30.12606 40.90991 34072 ft 468 kts 310°
2026-05-08 02:31 30.17470 40.85957 34061 ft 469 kts 310°
2026-05-08 02:32 30.22305 40.80947 34056 ft 469 kts 310°
2026-05-08 02:32 30.27163 40.75905 34056 ft 468 kts 310°
2026-05-08 02:33 30.32022 40.70855 34049 ft 468 kts 309°
2026-05-08 02:33 30.36840 40.65841 34060 ft 468 kts 309°
2026-05-08 02:34 30.41697 40.60810 34057 ft 468 kts 310°
2026-05-08 02:34 30.46594 40.55810 34058 ft 469 kts 310°
2026-05-08 02:35 30.51502 40.50798 34057 ft 468 kts 310°
2026-05-08 02:35 30.56384 40.45795 34068 ft 468 kts 310°
2026-05-08 02:36 30.60448 40.41619 34059 ft 468 kts 310°
2026-05-08 02:36 30.65339 40.36588 34055 ft 469 kts 310°
2026-05-08 02:37 30.70217 40.31561 34058 ft 469 kts 310°
2026-05-08 02:37 30.75065 40.26560 34055 ft 469 kts 310°
2026-05-08 02:38 30.79946 40.21516 34060 ft 470 kts 310°
2026-05-08 02:38 30.84841 40.16451 34055 ft 470 kts 310°
2026-05-08 02:39 30.89727 40.11390 34051 ft 470 kts 310°
2026-05-08 02:39 30.94206 40.06744 34051 ft 470 kts 310°
2026-05-08 02:40 30.98938 40.01827 34060 ft 470 kts 310°
2026-05-08 02:40 31.03803 39.96766 34056 ft 470 kts 310°
2026-05-08 02:41 31.08692 39.91673 34051 ft 470 kts 310°
2026-05-08 02:41 31.13588 39.86564 34053 ft 471 kts 310°
2026-05-08 02:42 31.18470 39.81463 34049 ft 470 kts 310°
2026-05-08 02:42 31.23319 39.76389 34056 ft 470 kts 310°
2026-05-08 02:43 31.28196 39.71279 34049 ft 470 kts 310°
2026-05-08 02:43 31.33071 39.66162 34049 ft 469 kts 310°
2026-05-08 02:44 31.37903 39.61084 34048 ft 469 kts 310°
2026-05-08 02:44 31.42755 39.55977 34066 ft 469 kts 310°
2026-05-08 02:45 31.47608 39.50853 34052 ft 468 kts 310°
2026-05-08 02:45 31.52447 39.45728 34051 ft 468 kts 310°
2026-05-08 02:46 31.57287 39.40593 34056 ft 468 kts 310°
2026-05-08 02:46 31.62090 39.35491 34053 ft 468 kts 310°
2026-05-08 02:47 31.66932 39.30341 34062 ft 468 kts 310°
2026-05-08 02:47 31.71765 39.25192 34050 ft 468 kts 310°
2026-05-08 02:48 31.76588 39.20048 34057 ft 468 kts 310°
2026-05-08 02:48 31.81802 39.15395 34081 ft 478 kts 321°
2026-05-08 02:49 31.87763 39.11719 34082 ft 484 kts 327°
2026-05-08 02:49 31.93823 39.08230 34057 ft 483 kts 326°
2026-05-08 02:50 31.99801 39.04706 34065 ft 482 kts 326°
2026-05-08 02:50 32.05791 39.01158 34066 ft 482 kts 326°
2026-05-08 02:51 32.11805 38.97619 34073 ft 481 kts 326°
2026-05-08 02:51 32.17806 38.94085 34069 ft 481 kts 326°
2026-05-08 02:52 32.23774 38.90561 34068 ft 481 kts 326°
2026-05-08 02:52 32.29762 38.87018 34078 ft 480 kts 327°
2026-05-08 02:53 32.35749 38.83470 34087 ft 480 kts 327°
2026-05-08 02:53 32.41733 38.79917 34071 ft 481 kts 327°
2026-05-08 02:54 32.47733 38.76351 34070 ft 482 kts 327°
2026-05-08 02:54 32.53735 38.72778 34073 ft 482 kts 327°
2026-05-08 02:55 32.62720 38.67423 34096 ft 483 kts 327°
2026-05-08 02:56 32.68747 38.63828 34081 ft 484 kts 327°
2026-05-08 02:56 32.74741 38.60249 34071 ft 483 kts 327°
2026-05-08 02:57 32.80762 38.56647 34072 ft 483 kts 327°
2026-05-08 02:57 32.86770 38.53046 34074 ft 482 kts 327°
2026-05-08 02:58 32.92732 38.49467 34082 ft 482 kts 326°
2026-05-08 02:58 32.98730 38.45862 34080 ft 481 kts 326°
2026-05-08 02:59 33.04715 38.42260 34078 ft 481 kts 326°
2026-05-08 02:59 33.10701 38.38651 34079 ft 480 kts 326°
2026-05-08 03:00 33.16635 38.35058 34093 ft 480 kts 326°
2026-05-08 03:00 33.22587 38.31417 34090 ft 480 kts 326°
2026-05-08 03:01 33.28550 38.27776 34088 ft 480 kts 326°
2026-05-08 03:01 33.34511 38.24135 34087 ft 480 kts 326°
2026-05-08 03:02 33.40426 38.20513 34087 ft 480 kts 326°
2026-05-08 03:02 33.46381 38.16863 34097 ft 479 kts 326°
2026-05-08 03:03 33.52328 38.13253 34098 ft 477 kts 326°
2026-05-08 03:03 33.58222 38.09683 34097 ft 475 kts 326°
2026-05-08 03:04 33.64119 38.06099 34103 ft 474 kts 326°
2026-05-08 03:04 33.69993 38.02519 34110 ft 473 kts 326°
2026-05-08 03:05 33.75841 37.98949 34125 ft 473 kts 325°
2026-05-08 03:05 33.81679 37.95381 34118 ft 472 kts 325°
2026-05-08 03:06 33.86980 37.90992 34123 ft 454 kts 309°
2026-05-08 03:06 33.90902 37.85181 34127 ft 442 kts 296°
2026-05-08 03:07 33.94133 37.78865 34128 ft 443 kts 296°
2026-05-08 03:07 33.97393 37.72533 34125 ft 445 kts 296°
2026-05-08 03:08 34.00667 37.66229 34136 ft 446 kts 296°
2026-05-08 03:08 34.03976 37.59875 34132 ft 447 kts 296°
2026-05-08 03:09 34.07288 37.53504 34132 ft 447 kts 296°
2026-05-08 03:09 34.10034 37.48211 34133 ft 447 kts 296°
2026-05-08 03:10 34.13332 37.41838 34126 ft 447 kts 297°
2026-05-08 03:10 34.16598 37.35523 34125 ft 444 kts 296°
2026-05-08 03:11 34.19676 37.29097 34127 ft 436 kts 288°
2026-05-08 03:11 34.21512 37.22197 34155 ft 428 kts 279°
2026-05-08 03:12 34.22271 37.15099 34142 ft 425 kts 273°
2026-05-08 03:12 34.22794 37.07961 34133 ft 427 kts 273°
2026-05-08 03:13 34.23336 37.00781 34153 ft 430 kts 273°
2026-05-08 03:13 34.23894 36.93607 34144 ft 432 kts 274°
2026-05-08 03:14 34.24458 36.86358 34145 ft 433 kts 273°
2026-05-08 03:14 34.25019 36.79103 34141 ft 433 kts 273°
2026-05-08 03:15 34.25575 36.71840 34155 ft 433 kts 274°
2026-05-08 03:15 34.26125 36.64608 34144 ft 431 kts 274°
2026-05-08 03:16 34.26668 36.57384 34142 ft 430 kts 273°
2026-05-08 03:16 34.26986 36.50152 34142 ft 430 kts 271°
2026-05-08 03:17 34.27206 36.42917 34141 ft 430 kts 271°
2026-05-08 03:17 34.27448 36.35720 34124 ft 430 kts 271°
2026-05-08 03:18 34.27708 36.28482 34132 ft 431 kts 271°
2026-05-08 03:18 34.27968 36.21228 34126 ft 432 kts 271°
2026-05-08 03:19 34.28224 36.13974 34122 ft 432 kts 271°
2026-05-08 03:19 34.28475 36.06737 34129 ft 433 kts 271°
2026-05-08 03:20 34.28723 35.99458 34122 ft 434 kts 272°
2026-05-08 03:20 34.29058 35.92157 34118 ft 434 kts 272°
2026-05-08 03:21 34.29417 35.84839 34106 ft 434 kts 272°
2026-05-08 03:21 34.29757 35.77558 34106 ft 433 kts 272°
2026-05-08 03:22 34.30386 35.70326 34112 ft 434 kts 279°
2026-05-08 03:22 34.31930 35.63297 34107 ft 435 kts 286°
2026-05-08 03:23 34.33915 35.56347 34115 ft 436 kts 287°
2026-05-08 03:23 34.35887 35.49392 34109 ft 437 kts 287°
2026-05-08 03:24 34.37834 35.42451 34113 ft 438 kts 286°
2026-05-08 03:24 34.39786 35.35457 34100 ft 439 kts 286°
2026-05-08 03:25 34.41738 35.28442 34098 ft 439 kts 286°
2026-05-08 03:25 34.43690 35.21415 34107 ft 439 kts 286°
2026-05-08 03:26 34.45637 35.14386 34106 ft 439 kts 286°
2026-05-08 03:26 34.48011 35.07621 34098 ft 442 kts 301°
2026-05-08 03:27 34.52268 35.02126 34096 ft 453 kts 319°
2026-05-08 03:27 34.57680 34.98188 34127 ft 456 kts 325°
2026-05-08 03:28 34.63218 34.94383 34119 ft 455 kts 325°
2026-05-08 03:28 34.68710 34.90547 34109 ft 454 kts 324°
2026-05-08 03:29 34.74160 34.86684 34109 ft 452 kts 324°
2026-05-08 03:29 34.79555 34.82836 34113 ft 451 kts 324°
2026-05-08 03:30 34.87687 34.77025 34109 ft 450 kts 324°
2026-05-08 03:31 34.98480 34.69296 34110 ft 448 kts 324°
2026-05-08 03:32 35.06518 34.63526 34109 ft 447 kts 324°
2026-05-08 03:32 35.11895 34.59656 34122 ft 448 kts 325°
2026-05-08 03:33 35.17238 34.55807 34109 ft 448 kts 325°
2026-05-08 03:33 35.22609 34.51932 34113 ft 448 kts 325°
2026-05-08 03:34 35.27982 34.48048 34111 ft 448 kts 325°
2026-05-08 03:34 35.33363 34.44154 34113 ft 448 kts 325°
2026-05-08 03:35 35.38736 34.40259 34111 ft 448 kts 325°
2026-05-08 03:35 35.44070 34.36385 34111 ft 448 kts 325°
2026-05-08 03:36 35.49442 34.32479 34111 ft 447 kts 325°
2026-05-08 03:36 35.54810 34.28568 34112 ft 447 kts 325°
2026-05-08 03:37 35.60142 34.24679 34111 ft 448 kts 325°
2026-05-08 03:37 35.65519 34.20749 34121 ft 448 kts 326°
2026-05-08 03:38 35.70887 34.16821 34116 ft 448 kts 326°
2026-05-08 03:38 35.76219 34.12912 34111 ft 448 kts 325°
2026-05-08 03:39 35.81587 34.08971 34112 ft 447 kts 325°
2026-05-08 03:39 35.86935 34.05038 34114 ft 447 kts 325°
2026-05-08 03:40 35.92283 34.01096 34121 ft 447 kts 325°
2026-05-08 03:40 35.97607 33.97085 34107 ft 447 kts 325°
2026-05-08 03:41 36.02873 33.93081 34104 ft 447 kts 325°
2026-05-08 03:41 36.08177 33.89050 34124 ft 446 kts 325°
2026-05-08 03:42 36.13462 33.85033 34124 ft 445 kts 325°
2026-05-08 03:42 36.18718 33.81032 34132 ft 444 kts 326°
2026-05-08 03:43 36.23992 33.77012 34132 ft 444 kts 326°
2026-05-08 03:43 36.28347 33.73690 34135 ft 444 kts 326°
2026-05-08 03:44 36.33615 33.69680 34125 ft 443 kts 326°
2026-05-08 03:44 36.38881 33.65666 34131 ft 443 kts 326°
2026-05-08 03:45 36.44132 33.61656 34145 ft 442 kts 326°
2026-05-08 03:45 36.49384 33.57637 34145 ft 443 kts 326°
2026-05-08 03:46 36.54633 33.53614 34141 ft 443 kts 326°
2026-05-08 03:46 36.59824 33.49629 34141 ft 443 kts 326°
2026-05-08 03:47 36.65071 33.45594 34148 ft 443 kts 326°
2026-05-08 03:47 36.70324 33.41548 34142 ft 443 kts 326°
2026-05-08 03:48 36.75580 33.37493 34159 ft 443 kts 326°
2026-05-08 03:48 36.80835 33.33432 34155 ft 444 kts 326°
2026-05-08 03:49 36.85891 33.29123 34154 ft 442 kts 319°
2026-05-08 03:49 36.90345 33.23824 34168 ft 441 kts 312°
2026-05-08 03:50 36.94494 33.18136 34159 ft 442 kts 311°
2026-05-08 03:50 36.98634 33.12456 34170 ft 441 kts 312°
2026-05-08 03:51 37.02758 33.06815 34193 ft 441 kts 312°
2026-05-08 03:51 37.06917 33.01132 34175 ft 441 kts 313°
2026-05-08 03:52 37.11066 32.95455 34179 ft 442 kts 312°
2026-05-08 03:52 37.15222 32.89758 34179 ft 442 kts 312°
2026-05-08 03:53 37.19343 32.84098 34176 ft 440 kts 313°
2026-05-08 03:53 37.23471 32.78420 34181 ft 440 kts 312°
2026-05-08 03:54 37.27597 32.72734 34187 ft 440 kts 312°
2026-05-08 03:54 37.31706 32.67061 34188 ft 439 kts 312°
2026-05-08 03:55 37.35825 32.61364 34173 ft 439 kts 313°
2026-05-08 03:55 37.39927 32.55681 34189 ft 438 kts 313°
2026-05-08 03:56 37.44003 32.50025 34188 ft 438 kts 313°
2026-05-08 03:56 37.48108 32.44318 34188 ft 438 kts 313°
2026-05-08 03:57 37.52197 32.38623 34179 ft 439 kts 313°
2026-05-08 03:57 37.56295 32.32905 34166 ft 438 kts 313°
2026-05-08 03:58 37.60354 32.27232 34168 ft 438 kts 313°
2026-05-08 03:58 37.64433 32.21520 34167 ft 437 kts 313°
2026-05-08 03:59 37.68512 32.15799 34162 ft 437 kts 313°
2026-05-08 03:59 37.72577 32.10087 34169 ft 437 kts 313°
2026-05-08 04:00 37.76621 32.04394 34165 ft 437 kts 313°
2026-05-08 04:00 37.80683 31.98666 34170 ft 437 kts 313°
2026-05-08 04:01 37.84753 31.92917 34165 ft 437 kts 313°
2026-05-08 04:01 37.88790 31.87204 34168 ft 437 kts 313°
2026-05-08 04:02 37.92845 31.81454 34178 ft 437 kts 313°
2026-05-08 04:02 37.96893 31.75705 34172 ft 436 kts 313°
2026-05-08 04:03 38.00929 31.69961 34175 ft 436 kts 313°
2026-05-08 04:03 38.06960 31.61361 34173 ft 436 kts 313°
2026-05-08 04:04 38.10999 31.55588 34190 ft 436 kts 313°
2026-05-08 04:04 38.15039 31.49804 34157 ft 437 kts 313°
2026-05-08 04:05 38.19069 31.44022 34172 ft 436 kts 313°
2026-05-08 04:05 38.23075 31.38261 34183 ft 436 kts 313°
2026-05-08 04:06 38.27113 31.32448 34315 ft 439 kts 313°
2026-05-08 04:06 38.29127 31.29543 34600 ft 437 kts 313°
2026-05-08 04:06 38.31141 31.26636 34919 ft 436 kts 313°
2026-05-08 04:07 38.33148 31.23736 35191 ft 435 kts 313°
2026-05-08 04:07 38.35146 31.20845 35501 ft 434 kts 313°
2026-05-08 04:07 38.37120 31.17989 35746 ft 434 kts 312°
2026-05-08 04:07 38.39121 31.15090 35936 ft 435 kts 312°
2026-05-08 04:08 38.41124 31.12185 36089 ft 437 kts 312°
2026-05-08 04:08 38.43134 31.09268 36121 ft 438 kts 312°
2026-05-08 04:08 38.47224 31.03500 36176 ft 435 kts 316°
2026-05-08 04:09 38.51840 30.98590 36183 ft 433 kts 325°
2026-05-08 04:09 38.56806 30.94241 36182 ft 433 kts 325°
2026-05-08 04:10 38.61782 30.89867 36192 ft 432 kts 325°
2026-05-08 04:10 38.66736 30.85475 36196 ft 432 kts 325°
2026-05-08 04:11 38.71687 30.81068 36203 ft 433 kts 325°
2026-05-08 04:11 38.76607 30.76680 36200 ft 433 kts 325°
2026-05-08 04:12 38.81570 30.72249 36203 ft 434 kts 325°
2026-05-08 04:12 38.86640 30.68002 36201 ft 435 kts 331°
2026-05-08 04:13 38.92044 30.64506 36205 ft 435 kts 333°
2026-05-08 04:13 38.97445 30.61032 36215 ft 436 kts 333°
2026-05-08 04:14 39.02863 30.57516 36205 ft 436 kts 332°
2026-05-08 04:14 39.08293 30.53973 36199 ft 436 kts 332°
2026-05-08 04:15 39.12791 30.51031 36204 ft 436 kts 332°
2026-05-08 04:15 39.19091 30.46904 36201 ft 435 kts 332°
2026-05-08 04:16 39.23580 30.43958 36210 ft 435 kts 332°
2026-05-08 04:16 39.28982 30.40408 36199 ft 435 kts 332°
2026-05-08 04:17 39.34376 30.36857 36195 ft 434 kts 332°
2026-05-08 04:17 39.39779 30.33294 36196 ft 434 kts 332°
2026-05-08 04:18 39.45123 30.29763 36205 ft 434 kts 332°
2026-05-08 04:18 39.50527 30.26245 36203 ft 434 kts 335°
2026-05-08 04:19 39.56118 30.23239 36195 ft 434 kts 337°
2026-05-08 04:19 39.61729 30.20285 36198 ft 434 kts 337°
2026-05-08 04:20 39.67330 30.17309 36195 ft 435 kts 337°
2026-05-08 04:20 39.72918 30.14320 36192 ft 435 kts 337°
2026-05-08 04:21 39.78492 30.11331 36184 ft 435 kts 337°
2026-05-08 04:21 39.84085 30.08327 36184 ft 435 kts 337°
2026-05-08 04:22 39.89690 30.05311 36178 ft 435 kts 337°
2026-05-08 04:22 39.95289 30.02293 36179 ft 435 kts 337°
2026-05-08 04:23 40.00848 29.99291 36166 ft 435 kts 337°
2026-05-08 04:23 40.06449 29.96257 36168 ft 435 kts 337°
2026-05-08 04:24 40.12034 29.93226 36164 ft 434 kts 337°
2026-05-08 04:24 40.17625 29.90186 36161 ft 435 kts 337°
2026-05-08 04:25 40.23231 29.87134 36159 ft 435 kts 337°
2026-05-08 04:25 40.28794 29.84098 36159 ft 435 kts 337°
2026-05-08 04:26 40.34378 29.81046 36147 ft 435 kts 337°
2026-05-08 04:26 40.39978 29.77980 36155 ft 435 kts 337°
2026-05-08 04:27 40.45584 29.74904 36141 ft 435 kts 337°
2026-05-08 04:27 40.51141 29.71850 36146 ft 435 kts 336°
2026-05-08 04:28 40.56741 29.68767 36127 ft 435 kts 337°
2026-05-08 04:28 40.62336 29.65678 36130 ft 435 kts 336°
2026-05-08 04:29 40.67650 29.61852 36126 ft 436 kts 327°
2026-05-08 04:29 40.72477 29.57002 36115 ft 436 kts 322°
2026-05-08 04:30 40.77182 29.51995 36108 ft 436 kts 322°
2026-05-08 04:30 40.81920 29.46972 36106 ft 436 kts 322°
2026-05-08 04:31 40.86659 29.41963 36101 ft 436 kts 322°
2026-05-08 04:31 40.91378 29.36973 36104 ft 436 kts 322°
2026-05-08 04:32 40.96126 29.31943 36100 ft 436 kts 322°
2026-05-08 04:32 41.00864 29.26912 36108 ft 436 kts 322°
2026-05-08 04:33 41.05583 29.21892 36098 ft 436 kts 322°
2026-05-08 04:33 41.10280 29.16796 36105 ft 437 kts 318°
2026-05-08 04:34 41.14403 29.10840 36116 ft 439 kts 310°
2026-05-08 04:34 41.17867 29.04141 36125 ft 440 kts 306°
2026-05-08 04:35 41.21209 28.97375 36113 ft 440 kts 306°
2026-05-08 04:35 41.24587 28.90562 36128 ft 440 kts 306°
2026-05-08 04:36 41.27968 28.83768 36133 ft 441 kts 306°
2026-05-08 04:36 41.31354 28.76959 36134 ft 441 kts 306°
2026-05-08 04:37 41.34743 28.70130 36123 ft 441 kts 305°
2026-05-08 04:37 41.38099 28.63349 36122 ft 441 kts 305°
2026-05-08 04:38 41.41473 28.56516 36124 ft 441 kts 305°
2026-05-08 04:38 41.44845 28.49673 36126 ft 441 kts 305°
2026-05-08 04:39 41.48229 28.42835 36118 ft 441 kts 307°
2026-05-08 04:39 41.52188 28.36614 36129 ft 439 kts 316°
2026-05-08 04:40 41.56553 28.30945 36125 ft 440 kts 316°
2026-05-08 04:40 41.60950 28.25207 36112 ft 441 kts 316°
2026-05-08 04:41 41.65303 28.19478 36117 ft 441 kts 316°
2026-05-08 04:41 41.69680 28.13691 36128 ft 441 kts 316°
2026-05-08 04:42 41.74055 28.07894 36122 ft 442 kts 316°
2026-05-08 04:42 41.78431 28.02085 36117 ft 442 kts 316°
2026-05-08 04:43 41.82779 27.96300 36131 ft 442 kts 316°
2026-05-08 04:43 41.87156 27.90465 36119 ft 442 kts 316°
2026-05-08 04:44 41.91523 27.84633 36116 ft 442 kts 316°
2026-05-08 04:44 41.95859 27.78827 36113 ft 442 kts 315°
2026-05-08 04:45 41.99837 27.72538 36126 ft 442 kts 309°
2026-05-08 04:45 42.03646 27.66049 36103 ft 442 kts 309°
2026-05-08 04:46 42.07472 27.59540 36092 ft 442 kts 309°
2026-05-08 04:46 42.11308 27.53029 36111 ft 443 kts 309°
2026-05-08 04:47 42.15128 27.46541 36108 ft 444 kts 309°
2026-05-08 04:47 42.18974 27.39998 36103 ft 444 kts 309°
2026-05-08 04:48 42.22818 27.33443 36090 ft 445 kts 309°
2026-05-08 04:48 42.26013 27.27983 36123 ft 445 kts 309°
2026-05-08 04:49 42.30486 27.20323 36124 ft 446 kts 309°
2026-05-08 04:49 42.33704 27.14798 36120 ft 446 kts 309°
2026-05-08 04:50 42.37520 27.08236 36121 ft 446 kts 308°
2026-05-08 04:50 42.41354 27.01626 36113 ft 446 kts 308°
2026-05-08 04:51 42.45188 26.95004 36114 ft 446 kts 308°
2026-05-08 04:51 42.49015 26.88377 36115 ft 446 kts 308°
2026-05-08 04:52 42.52818 26.81779 36116 ft 446 kts 308°
2026-05-08 04:52 42.56635 26.75140 36110 ft 446 kts 308°
2026-05-08 04:53 42.60452 26.68487 36111 ft 445 kts 308°
2026-05-08 04:53 42.64264 26.61829 36104 ft 445 kts 308°
2026-05-08 04:54 42.68054 26.55193 36097 ft 443 kts 308°
2026-05-08 04:54 42.71811 26.48601 36101 ft 442 kts 308°
2026-05-08 04:55 42.75575 26.41981 36091 ft 441 kts 308°
2026-05-08 04:55 42.79330 26.35363 36081 ft 441 kts 307°
2026-05-08 04:56 42.83076 26.28746 36085 ft 440 kts 307°
2026-05-08 04:56 42.86791 26.22169 36090 ft 440 kts 308°
2026-05-08 04:57 42.90531 26.15533 36069 ft 441 kts 307°
2026-05-08 04:57 42.94264 26.08896 36059 ft 441 kts 307°
2026-05-08 04:58 42.97998 26.02241 36060 ft 441 kts 307°
2026-05-08 04:58 43.01737 25.95560 36052 ft 442 kts 307°
2026-05-08 04:59 43.05458 25.88897 36055 ft 443 kts 307°
2026-05-08 04:59 43.09208 25.82168 36044 ft 444 kts 307°
2026-05-08 05:00 43.12956 25.75428 36048 ft 444 kts 307°
2026-05-08 05:00 43.16681 25.68679 36050 ft 444 kts 306°
2026-05-08 05:01 43.20330 25.61834 36047 ft 444 kts 306°
2026-05-08 05:01 43.23932 25.55012 36052 ft 444 kts 305°
2026-05-08 05:02 43.27564 25.48143 36048 ft 443 kts 305°
2026-05-08 05:02 43.31194 25.41276 36042 ft 443 kts 305°
2026-05-08 05:03 43.34816 25.34414 36044 ft 443 kts 305°
2026-05-08 05:03 43.38408 25.27592 36039 ft 442 kts 305°
2026-05-08 05:04 43.42011 25.20732 36040 ft 442 kts 305°
2026-05-08 05:04 43.45614 25.13857 36043 ft 442 kts 305°
2026-05-08 05:05 43.49193 25.07012 36033 ft 442 kts 305°
2026-05-08 05:05 43.52785 25.00126 36039 ft 442 kts 305°
2026-05-08 05:06 43.56371 24.93234 36038 ft 442 kts 305°
2026-05-08 05:06 43.59954 24.86334 36040 ft 442 kts 305°
2026-05-08 05:07 43.63535 24.79420 36020 ft 442 kts 305°
2026-05-08 05:07 43.67083 24.72552 36038 ft 441 kts 305°
2026-05-08 05:08 43.70649 24.65635 36036 ft 441 kts 305°
2026-05-08 05:08 43.74214 24.58705 36034 ft 441 kts 305°
2026-05-08 05:09 43.77999 24.52018 36031 ft 441 kts 309°
2026-05-08 05:09 43.82025 24.45564 36036 ft 442 kts 310°
2026-05-08 05:10 43.88041 24.35887 36038 ft 443 kts 309°
2026-05-08 05:11 43.92058 24.29374 36057 ft 443 kts 309°
2026-05-08 05:11 43.96047 24.22880 36040 ft 444 kts 309°
2026-05-08 05:12 44.00054 24.16341 36044 ft 444 kts 309°
2026-05-08 05:12 44.04057 24.09794 36046 ft 444 kts 309°
2026-05-08 05:13 44.08054 24.03242 36048 ft 444 kts 309°
2026-05-08 05:13 44.12018 23.96732 36046 ft 444 kts 309°
2026-05-08 05:14 44.16015 23.90151 36050 ft 445 kts 309°
2026-05-08 05:14 44.20022 23.83537 36048 ft 446 kts 308°
2026-05-08 05:15 44.24027 23.76912 36048 ft 446 kts 308°
2026-05-08 05:15 44.28031 23.70274 36054 ft 447 kts 308°
2026-05-08 05:16 44.32010 23.63662 36071 ft 447 kts 308°
2026-05-08 05:16 44.36009 23.57001 36064 ft 447 kts 308°
2026-05-08 05:17 44.40009 23.50321 36064 ft 447 kts 308°
2026-05-08 05:17 44.44004 23.43637 36059 ft 448 kts 308°
2026-05-08 05:18 44.47998 23.36938 36062 ft 448 kts 308°
2026-05-08 05:18 44.51990 23.30224 36063 ft 448 kts 308°
2026-05-08 05:19 44.55979 23.23502 36070 ft 448 kts 308°
2026-05-08 05:19 44.59941 23.16808 36058 ft 448 kts 307°
2026-05-08 05:20 44.63923 23.10066 36068 ft 448 kts 307°
2026-05-08 05:20 44.67904 23.03309 36061 ft 448 kts 307°
2026-05-08 05:21 44.71875 22.96552 36057 ft 448 kts 307°
2026-05-08 05:21 44.75849 22.89775 36063 ft 448 kts 307°
2026-05-08 05:22 44.79142 22.84146 36081 ft 448 kts 307°
2026-05-08 05:22 44.83088 22.77387 36059 ft 449 kts 307°
2026-05-08 05:23 44.87060 22.70568 36079 ft 448 kts 307°
2026-05-08 05:23 44.91020 22.63754 36069 ft 448 kts 307°
2026-05-08 05:24 44.94976 22.56927 36060 ft 448 kts 307°
2026-05-08 05:24 44.98902 22.50138 36072 ft 448 kts 307°
2026-05-08 05:25 45.02846 22.43301 36059 ft 448 kts 307°
2026-05-08 05:25 45.06791 22.36444 36064 ft 448 kts 306°
2026-05-08 05:26 45.10737 22.29571 36053 ft 449 kts 306°
2026-05-08 05:26 45.14651 22.22737 36046 ft 449 kts 306°
2026-05-08 05:27 45.18590 22.15842 36049 ft 450 kts 306°
2026-05-08 05:27 45.22531 22.08927 36047 ft 450 kts 306°
2026-05-08 05:28 45.26475 22.01988 36039 ft 451 kts 306°
2026-05-08 05:28 45.30417 21.95037 36029 ft 452 kts 306°
2026-05-08 05:29 45.34361 21.88064 36026 ft 453 kts 306°
2026-05-08 05:29 45.38284 21.81114 36043 ft 452 kts 305°
2026-05-08 05:30 45.42220 21.74123 36025 ft 452 kts 305°
2026-05-08 05:30 45.46148 21.67128 36016 ft 452 kts 305°
2026-05-08 05:31 45.50072 21.60122 36014 ft 451 kts 305°
2026-05-08 05:31 45.53992 21.53104 36016 ft 451 kts 305°
2026-05-08 05:32 45.57900 21.46094 36023 ft 451 kts 304°
2026-05-08 05:32 45.61811 21.39060 36014 ft 451 kts 304°
2026-05-08 05:33 45.65697 21.32052 36010 ft 452 kts 304°
2026-05-08 05:33 45.69592 21.25012 36012 ft 452 kts 304°
2026-05-08 05:34 45.73497 21.17935 36014 ft 452 kts 304°
2026-05-08 05:34 45.77390 21.10862 36016 ft 452 kts 304°
2026-05-08 05:35 45.81284 21.03769 36018 ft 452 kts 304°
2026-05-08 05:35 45.85150 20.96710 36013 ft 453 kts 304°
2026-05-08 05:36 45.89048 20.89574 36017 ft 453 kts 303°
2026-05-08 05:36 45.92938 20.82435 36017 ft 454 kts 303°
2026-05-08 05:37 45.96834 20.75266 36009 ft 454 kts 303°
2026-05-08 05:37 46.00725 20.68090 36005 ft 454 kts 303°
2026-05-08 05:38 46.04585 20.60951 36025 ft 455 kts 303°
2026-05-08 05:38 46.08470 20.53746 36012 ft 455 kts 303°
2026-05-08 05:39 46.12364 20.46507 35995 ft 456 kts 303°
2026-05-08 05:39 46.16248 20.39275 36002 ft 455 kts 303°
2026-05-08 05:40 46.20227 20.32187 36012 ft 456 kts 304°
2026-05-08 05:40 46.24292 20.25102 36001 ft 457 kts 304°
2026-05-08 05:41 46.28337 20.18011 35998 ft 457 kts 304°
2026-05-08 05:41 46.32372 20.10881 35999 ft 457 kts 304°
2026-05-08 05:42 46.36399 20.03730 35994 ft 457 kts 304°
2026-05-08 05:42 46.40395 19.96615 35992 ft 457 kts 304°
2026-05-08 05:43 46.44416 19.89438 35991 ft 457 kts 304°
2026-05-08 05:43 46.48423 19.82267 35988 ft 457 kts 304°
2026-05-08 05:44 46.52433 19.75072 35989 ft 457 kts 304°
2026-05-08 05:44 46.56418 19.67904 35991 ft 458 kts 304°
2026-05-08 05:45 46.60431 19.60666 35983 ft 459 kts 304°
2026-05-08 05:45 46.64439 19.53419 35986 ft 459 kts 304°
2026-05-08 05:46 46.68455 19.46140 35980 ft 460 kts 303°
2026-05-08 05:46 46.72441 19.38893 35997 ft 461 kts 303°
2026-05-08 05:47 46.76452 19.31582 35977 ft 462 kts 303°
2026-05-08 05:47 46.80475 19.24232 35978 ft 462 kts 304°
2026-05-08 05:48 46.84487 19.16881 35972 ft 462 kts 303°
2026-05-08 05:48 46.88501 19.09508 35981 ft 462 kts 303°
2026-05-08 05:49 46.92479 19.02181 35973 ft 463 kts 303°
2026-05-08 05:49 46.96489 18.94775 35964 ft 463 kts 303°
2026-05-08 05:50 47.00496 18.87355 35954 ft 463 kts 303°
2026-05-08 05:50 47.04489 18.79939 35968 ft 463 kts 303°
2026-05-08 05:51 47.08491 18.72488 35955 ft 464 kts 303°
2026-05-08 05:51 47.12461 18.65074 35950 ft 464 kts 303°
2026-05-08 05:52 47.16446 18.57616 35954 ft 463 kts 303°
2026-05-08 05:52 47.20425 18.50147 35953 ft 463 kts 303°
2026-05-08 05:53 47.24398 18.42669 35958 ft 464 kts 302°
2026-05-08 05:53 47.28382 18.35148 35947 ft 465 kts 302°
2026-05-08 05:54 47.32337 18.27661 35941 ft 465 kts 302°
2026-05-08 05:54 47.36320 18.20103 35938 ft 466 kts 302°
2026-05-08 05:55 47.39625 18.13816 35960 ft 466 kts 302°
2026-05-08 05:55 47.43610 18.06215 35939 ft 467 kts 302°
2026-05-08 05:56 47.48234 17.97369 35933 ft 468 kts 302°
2026-05-08 05:56 47.51572 17.90965 35935 ft 468 kts 302°
2026-05-08 05:57 47.55518 17.83375 35930 ft 468 kts 302°
2026-05-08 05:57 47.59487 17.75719 35943 ft 469 kts 302°
2026-05-08 05:58 47.63469 17.68017 35940 ft 470 kts 302°
2026-05-08 05:58 47.67455 17.60287 35943 ft 471 kts 302°
2026-05-08 05:59 47.71424 17.52566 35937 ft 472 kts 301°
2026-05-08 05:59 47.75412 17.44786 35931 ft 474 kts 302°
2026-05-08 06:00 47.79410 17.36965 35933 ft 474 kts 302°
2026-05-08 06:00 47.83407 17.29125 35931 ft 475 kts 301°
2026-05-08 06:01 47.87394 17.21281 35935 ft 475 kts 301°
2026-05-08 06:01 47.91356 17.13465 35964 ft 475 kts 301°
2026-05-08 06:02 47.95345 17.05571 35943 ft 475 kts 301°
2026-05-08 06:02 47.99322 16.97680 35936 ft 474 kts 301°
2026-05-08 06:03 48.03277 16.89807 35933 ft 473 kts 301°
2026-05-08 06:03 48.07228 16.81921 35935 ft 473 kts 301°
2026-05-08 06:04 48.11148 16.74073 35940 ft 473 kts 301°
2026-05-08 06:04 48.15084 16.66169 35941 ft 473 kts 301°
2026-05-08 06:05 48.19017 16.58250 35940 ft 473 kts 301°
2026-05-08 06:05 48.22943 16.50322 35940 ft 473 kts 301°
2026-05-08 06:06 48.26845 16.42416 35941 ft 474 kts 300°
2026-05-08 06:06 48.30775 16.34434 35940 ft 475 kts 300°
2026-05-08 06:07 48.34705 16.26426 35941 ft 476 kts 300°
2026-05-08 06:07 48.38634 16.18398 35950 ft 476 kts 300°
2026-05-08 06:08 48.42534 16.10405 35954 ft 477 kts 300°
2026-05-08 06:08 48.46464 16.02327 35951 ft 477 kts 300°
2026-05-08 06:09 48.50392 15.94230 35931 ft 478 kts 300°
2026-05-08 06:09 48.54317 15.86115 35938 ft 477 kts 300°
2026-05-08 06:10 48.58235 15.77988 35968 ft 477 kts 300°
2026-05-08 06:10 48.62113 15.69921 35951 ft 477 kts 299°
2026-05-08 06:11 48.66004 15.61802 35942 ft 475 kts 299°
2026-05-08 06:11 48.69870 15.53712 35939 ft 474 kts 299°
2026-05-08 06:12 48.73730 15.45609 35938 ft 474 kts 299°
2026-05-08 06:12 48.77586 15.37487 35946 ft 475 kts 299°
2026-05-08 06:13 48.81443 15.29338 35942 ft 476 kts 299°
2026-05-08 06:13 48.85283 15.21203 35944 ft 476 kts 299°
2026-05-08 06:14 48.89141 15.13010 35942 ft 477 kts 299°
2026-05-08 06:14 48.93334 15.05083 35972 ft 482 kts 303°
2026-05-08 06:15 48.97716 14.97297 35948 ft 484 kts 304°
2026-05-08 06:15 49.02067 14.89539 35946 ft 484 kts 303°
2026-05-08 06:16 49.06425 14.81687 35943 ft 484 kts 303°
2026-05-08 06:16 49.10766 14.73812 35935 ft 484 kts 303°
2026-05-08 06:17 49.17269 14.61970 35935 ft 485 kts 303°
2026-05-08 06:17 49.21576 14.54100 35927 ft 484 kts 303°
2026-05-08 06:18 49.25905 14.46170 35919 ft 484 kts 303°
2026-05-08 06:18 49.30218 14.38243 35929 ft 484 kts 303°
2026-05-08 06:19 49.34532 14.30289 35919 ft 484 kts 303°
2026-05-08 06:19 49.38818 14.22366 35915 ft 484 kts 303°
2026-05-08 06:20 49.43117 14.14395 35919 ft 483 kts 303°
2026-05-08 06:20 49.47409 14.06408 35910 ft 483 kts 303°
2026-05-08 06:21 49.51687 13.98428 35937 ft 483 kts 303°
2026-05-08 06:21 49.55937 13.90472 35922 ft 484 kts 303°
2026-05-08 06:22 49.60214 13.82440 35904 ft 484 kts 303°
2026-05-08 06:22 49.64488 13.74394 35910 ft 484 kts 303°
2026-05-08 06:23 49.68755 13.66337 35910 ft 483 kts 303°
2026-05-08 06:23 49.72986 13.58320 35911 ft 484 kts 304°
2026-05-08 06:24 49.77249 13.50217 35915 ft 485 kts 304°
2026-05-08 06:24 49.81506 13.42102 35910 ft 485 kts 304°
2026-05-08 06:25 49.85767 13.33954 35907 ft 485 kts 303°
2026-05-08 06:25 49.90020 13.25798 35902 ft 486 kts 304°
2026-05-08 06:26 49.93997 13.17435 35896 ft 483 kts 300°
2026-05-08 06:26 49.97816 13.08843 35884 ft 482 kts 299°
2026-05-08 06:27 50.01633 13.00239 35905 ft 482 kts 300°
2026-05-08 06:27 50.05459 12.91652 35905 ft 482 kts 300°
2026-05-08 06:28 50.08640 12.84513 35924 ft 483 kts 300°
2026-05-08 06:28 50.12468 12.75895 35895 ft 484 kts 300°
2026-05-08 06:29 50.16293 12.67253 35911 ft 484 kts 300°
2026-05-08 06:29 50.20115 12.58589 35902 ft 485 kts 300°
2026-05-08 06:30 50.23917 12.49938 35888 ft 485 kts 300°
2026-05-08 06:30 50.27744 12.41209 35880 ft 486 kts 300°
2026-05-08 06:31 50.31700 12.32605 35867 ft 487 kts 303°
2026-05-08 06:31 50.35855 12.24178 35868 ft 488 kts 303°
2026-05-08 06:32 50.40015 12.15763 35871 ft 487 kts 303°
2026-05-08 06:32 50.44120 12.07366 35897 ft 487 kts 303°
2026-05-08 06:33 50.48228 11.98893 35887 ft 487 kts 303°
2026-05-08 06:33 50.52332 11.90392 35879 ft 488 kts 303°
2026-05-08 06:34 50.56406 11.81929 35869 ft 487 kts 303°
2026-05-08 06:34 50.60489 11.73426 35878 ft 485 kts 303°
2026-05-08 06:35 50.64557 11.64923 35892 ft 485 kts 303°
2026-05-08 06:35 50.68616 11.56414 35879 ft 485 kts 303°
2026-05-08 06:36 50.72664 11.47898 35880 ft 484 kts 303°
2026-05-08 06:36 50.76680 11.39423 35885 ft 484 kts 303°
2026-05-08 06:37 50.80715 11.30878 35905 ft 484 kts 304°
2026-05-08 06:37 50.84746 11.22316 35907 ft 484 kts 304°
2026-05-08 06:38 50.88766 11.13748 35912 ft 484 kts 304°
2026-05-08 06:38 50.92761 11.05207 35914 ft 484 kts 304°
2026-05-08 06:39 50.96781 10.96582 35912 ft 485 kts 303°
2026-05-08 06:39 51.00791 10.87951 35926 ft 485 kts 304°
2026-05-08 06:40 51.04774 10.79349 35898 ft 485 kts 304°
2026-05-08 06:40 51.08774 10.70683 35908 ft 484 kts 304°
2026-05-08 06:41 51.12757 10.62023 35901 ft 484 kts 304°
2026-05-08 06:41 51.16725 10.53367 35901 ft 483 kts 304°
2026-05-08 06:42 51.20683 10.44705 35896 ft 483 kts 304°
2026-05-08 06:42 51.24554 10.36015 35897 ft 481 kts 300°
2026-05-08 06:43 51.27583 10.26542 35916 ft 478 kts 292°
2026-05-08 06:43 51.30250 10.16773 35915 ft 479 kts 291°
2026-05-08 06:44 51.32916 10.06998 35916 ft 479 kts 292°
2026-05-08 06:44 51.35585 9.97289 35913 ft 479 kts 292°
2026-05-08 06:45 51.38282 9.87500 35916 ft 479 kts 292°
2026-05-08 06:45 51.40970 9.77710 35942 ft 479 kts 292°
2026-05-08 06:46 51.43635 9.67956 35924 ft 479 kts 292°
2026-05-08 06:46 51.46305 9.58136 35928 ft 479 kts 292°
2026-05-08 06:47 51.48964 9.48317 35940 ft 478 kts 292°
2026-05-08 06:47 51.51578 9.38622 35936 ft 478 kts 292°
2026-05-08 06:48 51.54244 9.28697 35932 ft 478 kts 292°
2026-05-08 06:48 51.56853 9.18935 35944 ft 477 kts 291°
2026-05-08 06:49 51.59470 9.09106 35953 ft 478 kts 291°
2026-05-08 06:49 51.62077 8.99271 35971 ft 477 kts 291°
2026-05-08 06:50 51.64677 8.89420 35978 ft 477 kts 291°
2026-05-08 06:50 51.67271 8.79548 35989 ft 477 kts 291°
2026-05-08 06:51 51.69852 8.69686 35995 ft 477 kts 291°
2026-05-08 06:51 51.72411 8.59862 35991 ft 477 kts 291°
2026-05-08 06:52 51.74973 8.49988 35991 ft 477 kts 291°
2026-05-08 06:52 51.77532 8.40075 35986 ft 477 kts 291°
2026-05-08 06:53 51.80085 8.30146 35977 ft 477 kts 291°
2026-05-08 06:53 51.82612 8.20278 35983 ft 477 kts 291°
2026-05-08 06:54 51.85139 8.10362 35978 ft 476 kts 291°
2026-05-08 06:54 51.87656 8.00446 35992 ft 475 kts 291°
2026-05-08 06:55 51.90158 7.90542 35991 ft 474 kts 291°
2026-05-08 06:55 51.92648 7.80642 36004 ft 474 kts 291°
2026-05-08 06:56 51.95111 7.70803 36000 ft 473 kts 291°
2026-05-08 06:56 51.97578 7.60909 36003 ft 473 kts 291°
2026-05-08 06:57 52.00040 7.50987 36002 ft 473 kts 291°
2026-05-08 06:57 52.02481 7.41106 36016 ft 472 kts 291°
2026-05-08 06:58 52.04926 7.31164 36020 ft 472 kts 291°
2026-05-08 06:58 52.07362 7.21218 36023 ft 472 kts 291°
2026-05-08 06:59 52.09770 7.11336 36019 ft 472 kts 291°
2026-05-08 06:59 52.12185 7.01384 36023 ft 472 kts 291°
2026-05-08 07:00 52.14598 6.91396 36021 ft 472 kts 291°
2026-05-08 07:00 52.16998 6.81413 36023 ft 472 kts 290°
2026-05-08 07:01 52.19373 6.71489 36021 ft 472 kts 290°
2026-05-08 07:01 52.21356 6.63170 36030 ft 472 kts 290°
2026-05-08 07:02 52.23730 6.53167 36029 ft 472 kts 290°
2026-05-08 07:02 52.26096 6.43148 36028 ft 472 kts 290°
2026-05-08 07:03 52.28455 6.33118 36032 ft 472 kts 290°
2026-05-08 07:03 52.30790 6.23139 36030 ft 472 kts 290°
2026-05-08 07:04 52.33129 6.13098 36037 ft 471 kts 290°
2026-05-08 07:04 52.35454 6.03068 36038 ft 471 kts 290°
2026-05-08 07:05 52.37774 5.93017 36053 ft 471 kts 290°
2026-05-08 07:05 52.40078 5.82985 36044 ft 471 kts 290°
2026-05-08 07:06 52.42359 5.73003 36054 ft 470 kts 290°
2026-05-08 07:06 52.44648 5.62943 36052 ft 470 kts 289°
2026-05-08 07:07 52.46924 5.52891 36050 ft 469 kts 289°
2026-05-08 07:07 52.49189 5.42838 36054 ft 469 kts 290°
2026-05-08 07:08 52.51435 5.32826 36055 ft 470 kts 289°
2026-05-08 07:08 52.53692 5.22710 36047 ft 470 kts 289°
2026-05-08 07:09 52.55935 5.12613 36053 ft 470 kts 289°
2026-05-08 07:09 52.58162 5.02536 36063 ft 471 kts 289°
2026-05-08 07:10 52.60397 4.92373 36052 ft 471 kts 289°
2026-05-08 07:10 52.62624 4.82200 36051 ft 471 kts 289°
2026-05-08 07:11 52.64824 4.72098 36051 ft 471 kts 289°
2026-05-08 07:11 52.67032 4.61909 36058 ft 470 kts 289°
2026-05-08 07:12 52.69233 4.51709 36051 ft 471 kts 289°
2026-05-08 07:12 52.71237 4.41439 36060 ft 470 kts 285°
2026-05-08 07:13 52.72952 4.31091 36063 ft 469 kts 285°
2026-05-08 07:13 52.74655 4.20660 36066 ft 470 kts 285°
2026-05-08 07:14 52.76371 4.10227 36068 ft 471 kts 285°
2026-05-08 07:14 52.78093 3.99771 36074 ft 471 kts 285°
2026-05-08 07:15 52.79807 3.89306 36078 ft 472 kts 285°
2026-05-08 07:15 52.81507 3.78866 36081 ft 473 kts 285°
2026-05-08 07:16 52.83208 3.68342 36080 ft 473 kts 285°
2026-05-08 07:16 52.84905 3.57781 36083 ft 473 kts 285°
2026-05-08 07:17 52.86591 3.47219 36081 ft 474 kts 285°
2026-05-08 07:17 52.88260 3.36698 36090 ft 474 kts 285°
2026-05-08 07:18 52.89931 3.26099 36077 ft 475 kts 285°
2026-05-08 07:18 52.91596 3.15481 36077 ft 476 kts 285°
2026-05-08 07:19 52.93109 3.04790 36075 ft 476 kts 283°
2026-05-08 07:19 52.94471 2.94081 36078 ft 477 kts 283°
2026-05-08 07:20 52.95847 2.83296 36087 ft 478 kts 283°
2026-05-08 07:20 52.97242 2.72489 36085 ft 478 kts 283°
2026-05-08 07:21 52.98636 2.61679 36086 ft 479 kts 283°
2026-05-08 07:21 53.00010 2.50924 36085 ft 479 kts 283°
2026-05-08 07:22 53.01384 2.40078 36094 ft 479 kts 283°
2026-05-08 07:22 53.02750 2.29214 36086 ft 480 kts 282°
2026-05-08 07:23 53.04108 2.18328 36087 ft 480 kts 282°
2026-05-08 07:23 53.05453 2.07467 36097 ft 480 kts 282°
2026-05-08 07:24 53.06785 1.96638 36081 ft 480 kts 282°
2026-05-08 07:24 53.08116 1.85740 36091 ft 480 kts 282°
2026-05-08 07:25 53.09436 1.74844 36088 ft 480 kts 282°
2026-05-08 07:26 53.11393 1.58529 36092 ft 480 kts 282°
2026-05-08 07:26 53.12690 1.47602 36081 ft 480 kts 282°
2026-05-08 07:27 53.13978 1.36660 36090 ft 481 kts 282°
2026-05-08 07:27 53.15258 1.25691 36092 ft 481 kts 282°
2026-05-08 07:28 53.16518 1.14812 36091 ft 481 kts 282°
2026-05-08 07:28 53.17776 1.03846 36091 ft 481 kts 281°
2026-05-08 07:29 53.19025 0.92869 36085 ft 481 kts 281°
2026-05-08 07:29 53.20266 0.81867 36092 ft 481 kts 281°
2026-05-08 07:30 53.21495 0.70881 36081 ft 481 kts 281°
2026-05-08 07:30 53.22709 0.59940 36078 ft 481 kts 281°
2026-05-08 07:31 53.23917 0.48956 36080 ft 482 kts 281°
2026-05-08 07:31 53.25118 0.37930 36080 ft 482 kts 281°
2026-05-08 07:32 53.26297 0.26909 36083 ft 481 kts 281°
2026-05-08 07:32 53.27458 0.15959 36078 ft 480 kts 281°
2026-05-08 07:33 53.28619 0.04945 36079 ft 480 kts 280°
2026-05-08 07:33 53.29765 -0.06070 36074 ft 479 kts 280°
2026-05-08 07:34 53.30898 -0.17063 36076 ft 479 kts 280°
2026-05-08 07:34 53.32014 -0.27987 36079 ft 479 kts 280°
2026-05-08 07:35 53.32950 -0.37208 36080 ft 479 kts 280°
2026-05-08 07:35 53.34051 -0.48143 36073 ft 479 kts 280°
2026-05-08 07:36 53.35160 -0.59159 36077 ft 479 kts 280°
2026-05-08 07:36 53.36253 -0.70192 36073 ft 479 kts 279°
2026-05-08 07:37 53.37318 -0.81213 36075 ft 480 kts 279°
2026-05-08 07:37 53.38371 -0.92186 36075 ft 480 kts 279°
2026-05-08 07:38 53.39459 -1.03232 36071 ft 480 kts 279°
2026-05-08 07:38 53.40531 -1.14304 36068 ft 480 kts 279°
2026-05-08 07:39 53.41566 -1.25331 36067 ft 480 kts 279°
2026-05-08 07:39 53.42584 -1.36407 36066 ft 480 kts 279°
2026-05-08 07:40 53.43625 -1.47484 36065 ft 480 kts 279°
2026-05-08 07:40 53.44649 -1.58569 36062 ft 480 kts 279°
2026-05-08 07:41 53.45654 -1.69662 36057 ft 480 kts 278°
2026-05-08 07:41 53.46652 -1.80746 36060 ft 480 kts 278°
2026-05-08 07:42 53.47627 -1.91853 36050 ft 480 kts 278°
2026-05-08 07:42 53.48577 -2.02887 36057 ft 480 kts 278°
2026-05-08 07:43 53.49529 -2.13989 36037 ft 480 kts 278°
2026-05-08 07:43 53.50473 -2.25119 36048 ft 480 kts 278°
2026-05-08 07:44 53.51405 -2.36170 36043 ft 480 kts 278°
2026-05-08 07:44 53.52334 -2.47304 36032 ft 481 kts 278°
2026-05-08 07:45 53.53255 -2.58465 36040 ft 481 kts 277°
2026-05-08 07:45 53.54163 -2.69609 36033 ft 481 kts 277°
2026-05-08 07:46 53.55062 -2.80773 36036 ft 481 kts 277°
2026-05-08 07:46 53.55950 -2.91937 36018 ft 481 kts 277°
2026-05-08 07:47 53.56823 -3.03045 36028 ft 481 kts 277°
2026-05-08 07:47 53.57398 -3.10439 36052 ft 480 kts 277°